Regional Weather Roundup
Issued by NWS

Home | Current Version | Previous Version | Graphics & Text | Print | Product List | Glossary On
Versions: 1 2 3 4 5 6 7 8 9 10 11 12 13 14 15 16 17 18 19 20 21 22 23 24 25 26 27 28 29 30 31 32 33 34 35 36 37 38 39 40 41 42 43 44 45 46 47 48 49 50
000
ASUS43 KLOT 242304
RWRIL

ILLINOIS REGIONAL WEATHER ROUNDUP
NATIONAL WEATHER SERVICE CHICAGO/ROMEOVILLE IL
600 PM CDT SAT JUN 24 2017

NOTE: "FAIR" INDICATES FEW OR NO CLOUDS BELOW 12,000 FEET WITH NO
SIGNIFICANT WEATHER AND/OR OBSTRUCTIONS TO VISIBILITY.

* THESE STATIONS ARE NOT UNDER NWS QUALITY CONTROL. THEY ALSO MAY NOT
  REPORT WEATHER SUCH AS PRECIPITATION OR FOG.

ILZ001-002-007-009-015-016-024-250000-
NORTHWEST ILLINOIS

CITY           SKY/WX    TMP DP  RH WIND       PRES   REMARKS
MOLINE         SUNNY     74  40  29 W16G26    30.05F
STERLING*      SUNNY     72  46  39 W18       30.04F
SAVANNA*       SUNNY     73  44  35 W9        30.03F
$$

ILZ003-004-008-010-011-017-018-250000-
NORTH CENTRAL ILLINOIS

CITY           SKY/WX    TMP DP  RH WIND       PRES   REMARKS
ROCKFORD       MOSUNNY   72  42  34 NW17G25   30.02F
FREEPORT*      SUNNY     69  42  37 W15G22    30.04S
ROCHELLE*      SUNNY     70  44  39 W14G22    30.03F
DE KALB*       MOSUNNY   70  43  36 NW17      30.03S
PERU*          SUNNY     71  42  35 W15G32    30.06S
$$

ILZ005-006-012>014-019>023-250000-
NORTHEAST ILLINOIS

CITY           SKY/WX    TMP DP  RH WIND       PRES   REMARKS
CHICAGO-OHARE  MOSUNNY   72  40  31 NW23G31   29.99S
CHICAGO-MIDWAY MOSUNNY   73  42  32 W18G29    30.00R
AURORA         SUNNY     72  42  34 W25G32    30.03R
LANSING*       MOSUNNY   73  42  32 W20G28    30.00S
JOLIET*        MOSUNNY   74  42  32 NW8G23    30.03R
WAUKEGAN       MOSUNNY   70  44  39 W12G23    29.98R
DUPAGE AIRPORT SUNNY     70  43  37 NW23G30   30.01R
WHEELING       MOSUNNY   71  43  36 W18G31    30.00R
MORRIS*        SUNNY     73  42  33 NW18G29   30.02S
ROMEOVILLE*    MOSUNNY   73  38  28 W24G31    30.02R
NORTHERLY ISL    N/A     71  41  33 NW15        N/A
$$

LMZ740>746-250000-
SOUTHERN LAKE MICHIGAN

STATION/POSITION SKY/WX   TEMP    WIND        PRES    VSBY  WAVE
                          AIR SEA DIR/SP/G                  HT/PER
                          (F)     (DEG/KT/KT) (MB)    (MI)  (FT/S)
SOUTHERN BUOY              64 63  250/  2/  4 1014.7          1/ 3
WILMETTE HARBOR            69 65  280/ 17/ 23   N/A           2/ 3
HARRISON CRIB              72     270/ 22/ 25   N/A
BURNHAM HARBOR             72                   N/A
CALUMET HARBOR             72     270/  6/ 17 1015.1S
BURNS HARBOR               70     280/ 15/ 17 1015.9F
MICHIGAN CITY              71     320/  4/  5   N/A
MICHIGAN CITY 6N           69 68  340/  2/  6   N/A           2/ 4
ST. JOSEPH                 68 69  320/  4/  6 1015.2F         2/ 4
$$

ILZ025>027-034>036-040-047-049-050-058-095>099-250000-
WEST-CENTRAL ILLINOIS

CITY           SKY/WX    TMP DP  RH WIND       PRES   REMARKS
QUINCY         SUNNY     74  42  31 NW15      30.12S
GALESBURG*     SUNNY     73  41  32 W12G18    30.09F
MACOMB*        SUNNY     74  39  28 NW15      30.12S
JACKSONVILLE*  SUNNY     74  42  31 NW9G17    30.11R
PITTSFIELD*    SUNNY     75  44  32 NW15      30.13S
$$

ILZ028>032-037-038-041>044-048-051>054-059>061-250000-
CENTRAL ILLINOIS

CITY           SKY/WX    TMP DP  RH WIND       PRES   REMARKS
PONTIAC        SUNNY     73  41  31 NW25      30.06S
BLOOMINGTON    SUNNY     73  43  33 NW20      30.08S
DECATUR        SUNNY     75  42  30 NW16G24   30.08S
PEORIA         SUNNY     73  40  30 NW14G22   30.08S
LACON*         SUNNY     73  43  34 NW13G24   30.06S
LINCOLN*       SUNNY     76  43  31 NW12G17   30.08S
SPRINGFIELD    SUNNY     77  42  28 NW18      30.09S
TAYLORVILLE    MOSUNNY   74  44  33 W13       30.09S
$$

ILZ033-039-045-046-055>057-062-063-250000-
EAST-CENTRAL ILLINOIS

CITY           SKY/WX    TMP DP  RH WIND       PRES   REMARKS
CHAMPAIGN      SUNNY     74  42  31 NW14G22   30.07R
RANTOUL*       SUNNY     75  44  32 NW15G24   30.07R
MATTOON        MOSUNNY   75  49  39 NW14      30.07S
PARIS*         MOSUNNY   73  52  48 W10G20    30.07S
$$

ILZ079-100>102-250000-
SOUTHWEST ILLINOIS

CITY           SKY/WX    TMP DP  RH WIND       PRES   REMARKS
ALTON          MOSUNNY   73  48  40 NW8G16    30.11S
BELLEVILLE     SUNNY     78  48  35 NW13      30.11S
CAHOKIA*       SUNNY     79  42  26 NW17      30.10S
SPARTA*        SUNNY     78  47  33 NW7       30.11S
$$

ILZ064>066-069>071-074>076-080>082-084>086-088>090-092>094-250000-
SOUTH-CENTRAL ILLINOIS

CITY           SKY/WX    TMP DP  RH WIND       PRES   REMARKS
CARBONDALE     CLOUDY    77  52  41 W6        30.09F
CAIRO*         MOSUNNY   76  55  48 N9        30.10S
EFFINGHAM*     MOSUNNY   77  50  38 W14       30.09F
MARION         PTSUNNY   77  52  41 NW6       30.11S
MT. VERNON     SUNNY     77  51  40 VRB3      30.10S
CENTRALIA*     SUNNY     78  52  40 NW9       30.09S
SALEM*         MOSUNNY   76  48  37 NW7       30.10S
METROPOLIS*    MOSUNNY   76  53  44 NW7       30.11R
$$

ILZ067-068-072-073-078-083-087-091-250000-
SOUTHEAST ILLINOIS

CITY           SKY/WX    TMP DP  RH WIND       PRES   REMARKS
LAWRENCEVILLE  CLOUDY    76  53  44 N13       30.08R
FLORA*         CLOUDY    78  49  36 NW10      30.09S
FAIRFIELD*     CLOUDY    76  50  39 W6        30.09R
HARRISBURG*    CLOUDY    76  54  46 NW8       30.10S
ROBINSON*      MOSUNNY   74  51  43 NW10      30.08S
CARMI*         CLOUDY    75  54  47 NW12      30.08S
$$

ABBREVIATIONS USED IN REMARKS
   TC - TEMPERATURE IN CELSIUS
  WCI - WIND CHILL INDEX
   HX - HEAT INDEX
  VSB - VISIBILITY
$$





USA.gov is the U.S. government's official web portal to all federal, state and local government web resources and services.